EW5462 Weather Reports


Display with metric or nautical units.
time (UTC)temp
F
wind
direction
speed
MPH
gust
MPH
rain 1hr
in
rain 24hr
in
rain mn
in
humidity
%
barometer
mb
20260831133217 87 0.0 0.0 0.00 0.00 0.00 70 1008.5
20260831132218 86 0.0 0.0 0.00 0.00 0.00 72 1008.4
20260831131217 87 173 2.0 2.0 0.00 0.00 0.00 71 1008.2
20260831130216 87 147 0.0 0.0 0.00 0.00 0.00 70 1008.0
20260831125217 87 184 0.0 2.0 0.00 0.00 0.00 71 1007.9
20260831124216 87 155 1.0 5.0 0.00 0.00 0.00 70 1007.8
20260831123217 87 172 5.0 7.0 0.00 0.00 0.00 69 1007.7
20260831122917 88 155 0.0 2.0 0.00 0.00 0.00 69 1007.6
20260831121916 88 189 3.0 6.0 0.00 0.00 0.00 68 1007.6
20260831120917 88 0.0 0.0 0.00 0.00 0.00 68 1007.5
20260831115916 88 149 6.0 8.0 0.00 0.00 0.00 66 1007.4
20260831114917 88 195 2.0 4.0 0.00 0.00 0.00 69 1007.4
20260831113917 87 175 5.0 6.0 0.00 0.00 0.00 70 1007.4
20260831112916 87 0.0 0.0 0.00 0.00 0.00 70 1007.5
20260831111917 88 0.0 0.0 0.00 0.00 0.00 69 1007.5
20260831110917 88 0.0 0.0 0.00 0.00 0.00 69 1007.5
20260831105916 88 0.0 0.0 0.00 0.00 0.00 69 1007.4
20260831104917 88 195 0.0 0.0 0.00 0.00 0.00 69 1007.4
20260831103916 88 197 1.0 5.0 0.00 0.00 0.00 68 1007.3
20260831102917 88 0.0 0.0 0.00 0.00 0.00 67 1007.2
20260831101917 89 0.0 0.0 0.00 0.00 0.00 66 1007.1
20260831100917 88 198 0.0 1.0 0.00 0.00 0.00 65 1007.1
20260831095916 89 0.0 0.0 0.00 0.00 0.00 64 1007.0
20260831094917 88 0.0 0.0 0.00 0.00 0.00 63 1006.9
20260831093917 88 0.0 0.0 0.00 0.00 0.00 63 1006.9
20260831092916 88 0.0 0.0 0.00 0.00 0.00 62 1006.9
20260831091916 89 0.0 0.0 0.00 0.00 0.00 62 1006.9
20260831090917 89 0.0 0.0 0.00 0.00 0.00 62 1007.0
20260831085917 89 0.0 0.0 0.00 0.00 0.00 61 1007.1
20260831085217 89 0.0 0.0 0.00 0.00 0.00 62 1007.2
20260831084216 89 0.0 0.0 0.00 0.00 0.00 62 1007.2
20260831083217 89 0.0 0.0 0.00 0.00 0.00 61 1007.2
20260831082216 89 0.0 0.0 0.00 0.00 0.00 60 1007.2
20260831081216 90 0.0 0.0 0.00 0.00 0.00 60 1007.2
20260831080216 90 164 2.0 5.0 0.00 0.00 0.00 59 1007.3
20260831075217 90 175 2.0 3.0 0.00 0.00 0.00 59 1007.3
20260831074217 90 164 3.0 6.0 0.00 0.00 0.00 58 1007.4
20260831073217 90 157 1.0 3.0 0.00 0.00 0.00 58 1007.3
20260831072216 91 0.0 0.0 0.00 0.00 0.00 57 1007.3
20260831071217 91 162 3.0 5.0 0.00 0.00 0.00 56 1007.2
20260831070217 91 156 4.0 6.0 0.00 0.00 0.00 56 1007.2
20260831065017 91 0.0 0.0 0.00 0.00 0.00 56 1007.2
20260831064015 91 150 5.0 7.0 0.00 0.00 0.00 56 1007.1
20260831063917 91 0.0 0.0 0.00 0.00 0.00 56 1007.1
20260831063216 91 155 6.0 8.0 0.00 0.00 0.00 55 1007.1
20260831062217 92 152 6.0 9.0 0.00 0.00 0.00 55 1007.1
20260831061316 92 158 7.0 9.0 0.00 0.00 0.00 54 1007.0
20260831060316 92 150 6.0 7.0 0.00 0.00 0.00 52 1007.0
20260831055316 92 155 8.0 9.0 0.00 0.00 0.00 50 1006.9
20260831054317 92 174 6.0 8.0 0.00 0.00 0.00 49 1006.9
20260831053319 92 179 5.0 7.0 0.00 0.00 0.00 48 1006.8
20260831052317 93 181 5.0 7.0 0.00 0.00 0.00 48 1006.9
20260831051317 93 167 2.0 4.0 0.00 0.00 0.00 49 1006.9
20260831050516 93 178 7.0 9.0 0.00 0.00 0.00 48 1007.0
20260831045517 93 163 6.0 8.0 0.00 0.00 0.00 47 1007.0
20260831044516 94 165 4.0 8.0 0.00 0.00 0.00 47 1007.1
20260831043517 94 188 6.0 8.0 0.00 0.00 0.00 45 1006.9
20260831042517 95 191 5.0 7.0 0.00 0.00 0.00 43 1006.8
20260831041617 95 172 8.0 10.0 0.00 0.00 0.00 42 1006.5
20260831035916 95 168 9.0 12.0 0.00 0.00 0.00 46 1006.1
20260831034916 96 157 9.0 11.0 0.00 0.00 0.00 45 1005.7
20260831033916 96 164 10.0 13.0 0.00 0.00 0.00 44 1005.5
20260831032917 97 172 9.0 12.0 0.00 0.00 0.00 42 1005.4
20260831031917 98 164 9.0 12.0 0.00 0.00 0.00 37 1005.1
20260831030916 99 175 6.0 10.0 0.00 0.00 0.00 38 1004.9
20260831025917 99 178 8.0 11.0 0.00 0.00 0.00 37 1004.6
20260831024916 100 168 10.0 13.0 0.00 0.00 0.00 36 1004.3
20260831023917 100 176 9.0 13.0 0.00 0.00 0.00 35 1004.1
20260831022917 101 168 9.0 12.0 0.00 0.00 0.00 35 1003.9
20260831021916 101 158 8.0 11.0 0.00 0.00 0.00 35 1003.8
20260831020916 101 161 9.0 12.0 0.00 0.00 0.00 35 1003.7
20260831015915 102 160 7.0 12.0 0.00 0.00 0.00 34 1003.7
20260831014917 103 157 5.0 8.0 0.00 0.00 0.00 33 1003.6
20260831013916 103 172 7.0 10.0 0.00 0.00 0.00 33 1003.6
20260831012916 103 176 7.0 10.0 0.00 0.00 0.00 32 1003.6
20260831011917 104 181 5.0 9.0 0.00 0.00 0.00 31 1003.6
20260831010915 104 195 4.0 8.0 0.00 0.00 0.00 30 1003.5
20260831005916 105 189 2.0 7.0 0.00 0.00 0.00 29 1003.5
20260831004915 105 167 2.0 6.0 0.00 0.00 0.00 30 1003.3
20260831003917 105 209 5.0 7.0 0.00 0.00 0.00 28 1003.3
20260831002917 105 188 2.0 6.0 0.00 0.00 0.00 29 1003.4
20260831002617 106 195 6.0 8.0 0.00 0.00 0.00 29 1003.5
20260831001617 107 209 5.0 8.0 0.00 0.00 0.00 28 1003.6
20260831000617 110 193 5.0 7.0 0.00 0.00 0.00 27 1003.4
20260830235617 110 201 6.0 9.0 0.00 0.00 0.00 27 1003.5
20260830234616 109 125 0.0 0.0 0.00 0.00 0.00 28 1003.6
20260830233616 110 197 2.0 6.0 0.00 0.00 0.00 27 1003.8
20260830232616 110 156 6.0 8.0 0.00 0.00 0.00 28 1003.9
20260830231617 110 166 5.0 8.0 0.00 0.00 0.00 28 1004.1
20260830230617 110 180 8.0 11.0 0.00 0.00 0.00 29 1004.2
20260830225617 110 154 8.0 10.0 0.00 0.00 0.00 29 1004.3
20260830224616 109 190 0.0 0.0 0.00 0.00 0.00 30 1004.5
20260830223616 109 195 5.0 10.0 0.00 0.00 0.00 29 1004.7
20260830222616 109 143 7.0 10.0 0.00 0.00 0.00 28 1004.9
20260830221616 110 165 6.0 9.0 0.00 0.00 0.00 31 1005.0
20260830220617 109 133 3.0 7.0 0.00 0.00 0.00 32 1005.3
20260830215617 108 181 3.0 6.0 0.00 0.00 0.00 32 1005.5
20260830214616 109 191 5.0 8.0 0.00 0.00 0.00 32 1005.6
20260830213517 109 149 8.0 10.0 0.00 0.00 0.00 32 1005.9
20260830212517 109 147 8.0 11.0 0.00 0.00 0.00 32 1006.0
20260830211517 108 141 8.0 11.0 0.00 0.00 0.00 33 1006.2
20260830210517 108 149 8.0 11.0 0.00 0.00 0.00 34 1006.5
20260830210317 107 167 3.0 6.0 0.00 0.00 0.00 35 1006.5
20260830205316 107 158 8.0 13.0 0.00 0.00 0.00 34 1006.7
20260830204317 107 151 9.0 11.0 0.00 0.00 0.00 35 1006.8
20260830203316 108 153 12.0 15.0 0.00 0.00 0.00 35 1006.9
20260830202317 106 184 0.0 1.0 0.00 0.00 0.00 36 1007.1
20260830201317 107 167 9.0 11.0 0.00 0.00 0.00 34 1007.2
20260830200317 107 191 7.0 10.0 0.00 0.00 0.00 35 1007.4
20260830195316 106 204 8.0 12.0 0.00 0.00 0.00 36 1007.5
20260830194317 105 170 9.0 12.0 0.00 0.00 0.00 37 1007.7
20260830193817 106 170 6.0 10.0 0.00 0.00 0.00 37 1007.7
20260830192816 105 176 7.0 10.0 0.00 0.00 0.00 37 1007.8
20260830191817 105 166 9.0 13.0 0.00 0.00 0.00 37 1008.0
20260830190816 105 163 9.0 12.0 0.00 0.00 0.00 38 1008.2
20260830185817 104 153 12.0 14.0 0.00 0.00 0.00 39 1008.3
20260830184817 105 152 11.0 14.0 0.00 0.00 0.00 38 1008.4
20260830183816 103 157 7.0 12.0 0.00 0.00 0.00 41 1008.5
20260830182815 103 161 10.0 14.0 0.00 0.00 0.00 42 1008.6
20260830181817 103 158 10.0 12.0 0.00 0.00 0.00 41 1008.7
20260830180817 102 181 9.0 12.0 0.00 0.00 0.00 42 1008.8
20260830175817 102 183 9.0 9.0 0.00 0.00 0.00 44 1008.9
20260830174816 103 160 9.0 12.0 0.00 0.00 0.00 43 1009.0
20260830173815 102 154 11.0 14.0 0.00 0.00 0.00 44 1009.1
20260830172817 101 153 12.0 15.0 0.00 0.00 0.00 45 1009.1
20260830171816 101 157 10.0 12.0 0.00 0.00 0.00 46 1009.1
20260830170817 101 153 11.0 14.0 0.00 0.00 0.00 47 1009.1
20260830165817 100 156 11.0 14.0 0.00 0.00 0.00 48 1009.0
20260830164816 100 160 11.0 14.0 0.00 0.00 0.00 49 1009.0
20260830163817 99 166 11.0 15.0 0.00 0.00 0.00 51 1008.8
20260830162816 98 155 12.0 15.0 0.00 0.00 0.00 53 1008.8
20260830161816 98 156 12.0 14.0 0.00 0.00 0.00 53 1008.9
20260830160816 97 178 10.0 14.0 0.00 0.00 0.00 55 1009.0
20260830155816 97 163 11.0 15.0 0.00 0.00 0.00 55 1009.0
20260830154817 97 165 11.0 15.0 0.00 0.00 0.00 56 1008.9
20260830153817 96 165 11.0 15.0 0.00 0.00 0.00 58 1008.9
20260830152817 95 155 14.0 16.0 0.00 0.00 0.00 59 1008.9
20260830151817 95 157 10.0 11.0 0.00 0.00 0.00 59 1009.1
20260830150916 94 162 11.0 14.0 0.00 0.00 0.00 60 1009.1
20260830145917 94 151 11.0 13.0 0.00 0.00 0.00 60 1009.2
20260830144917 93 144 12.0 14.0 0.00 0.00 0.00 59 1009.2
20260830143917 93 153 11.0 14.0 0.00 0.00 0.00 59 1009.3
20260830142917 92 144 11.0 14.0 0.00 0.00 0.00 60 1009.2
20260830142216 92 142 12.0 14.0 0.00 0.00 0.00 61 1009.2
20260830141215 91 143 11.0 14.0 0.00 0.00 0.00 62 1009.2
20260830140217 91 133 8.0 10.0 0.00 0.00 0.00 63 1009.2
20260830135217 90 150 10.0 13.0 0.00 0.00 0.00 65 1009.1
20260830134217 89 136 9.0 11.0 0.00 0.00 0.00 66 1008.9